Tracking 19245 objects as of 18-Aug-2018
HD Live streaming from Space Station
objects crossing your sky now

SL-12 R/B(2)

Track SL-12 R/B(2) now!


NORAD ID: 25598
Int'l Code: 1998-077F
Perigee: 19,084.5 km
Apogee: 19,140.8 km
Inclination: 63.3 °
Period: 674.8 minutes
Semi major axis: 25483 km
RCS: 0.5799 m2 (medium)
Launch date: December 30, 1998
Source: Commonwealth of Independent States (former USSR) (CIS)
Launch site: TYURATAM MISSILE AND SPACE COMPLEX (TTMTR)

Note: This is a ROCKET BODY
aabbcc
Your satellite tracking list
Your tracking list is empty




NASA's NSSDC Master Catalog

Two Line Element Set (TLE):
1 25598U 98077F   18228.83170494 +.00000008 +00000-0 +00000-0 0  9995
2 25598 063.2752 160.7398 0011048 268.6810 189.2495 02.13407637152925
Source of the keplerian elements: AFSPC